Location: Cutler
(25.6150°N, 80.3110°W)
Time: 13:34:42
(UTC-05:00)

Vanguard 1 - Pass Details

Date: 26 January 2018
Orbit: 650 x 3833 km, 34.2° (Epoch: 22 February)

Event Time Altitude Azimuth Distance (km) Brightness Sun altitude
Rises 19:22:53 0° 210° (SSW) 3,138 13.3 -18.6°
Reaches altitude 10° 19:25:54 10° 192° (SSW) 2,075 12.0 -19.2°
Maximum altitude 19:29:09 20° 144° (SE) 1,507 10.8 -20.0°
Enters shadow 19:29:16 19° 142° (SE) 1,509 10.8 -20.0°
Drops below altitude 10° 19:32:29 10° 97° (E) 2,129 - -20.7°
Sets 19:35:37 0° 79° (E) 3,250 - -21.4°
